Location: 相模原市立博物館
(35.5593°N, 139.3931°E)
Time: 14:12:08
(UTC+09:00)

NOAA 19 - Visible Passes

Search period start: 28 January 2022 00:00
Search period end: 07 February 2022 00:00
Orbit: 841 x 860 km, 99.2° (Epoch: 27 January)

Date Brightness Start Highest point End Pass type
(mag) Time Alt. Az. Time Alt. Az. Time Alt. Az.
28 Jan 5.2 18:16:23 10° SSE 18:21:48 57° ENE 18:27:14 10° N visible
28 Jan 7.9 19:59:24 10° SW 20:02:45 16° W 20:06:06 10° NW visible
29 Jan 5.5 18:04:49 10° SE 18:10:03 44° ENE 18:15:17 10° N visible
29 Jan 7.5 19:46:42 10° SW 19:50:49 21° W 19:54:58 10° NW visible
30 Jan 5.8 17:53:21 10° SE 17:58:18 35° ENE 18:03:16 10° N visible
30 Jan 7.2 19:34:15 10° SSW 19:38:55 27° W 19:43:36 10° NW visible
31 Jan 6.1 17:42:01 10° ESE 17:46:36 27° ENE 17:51:10 10° N visible
31 Jan 6.7 19:21:59 10° SSW 19:27:01 35° W 19:32:05 10° NNW visible
01 Feb 8.4 06:08:13 10° ENE 06:10:52 14° E 06:13:30 10° ESE visible
01 Feb 6.4 17:30:48 10° ESE 17:34:54 21° ENE 17:38:59 10° NNE visible
01 Feb 6.2 19:09:52 10° S 19:15:09 46° W 19:20:29 10° NNW visible
02 Feb 5.7 18:57:50 10° S 19:03:18 60° WSW 19:08:48 10° NNW visible
03 Feb 5.3 18:45:56 10° S 18:51:28 78° WSW 18:57:03 10° NNW visible
04 Feb 5.1 18:34:08 10° SSE 18:39:40 82° ENE 18:45:14 10° NNW visible
04 Feb 8.3 20:19:51 10° WSW 20:20:51 10° W 20:21:52 10° W visible
05 Feb 5.2 18:22:25 10° SSE 18:27:53 64° ENE 18:33:22 10° N visible
05 Feb 8.0 20:05:59 10° SW 20:08:54 14° W 20:11:49 10° WNW visible
06 Feb 5.4 18:10:48 10° SE 18:16:06 49° ENE 18:21:26 10° N visible
06 Feb 7.7 19:53:07 10° SW 19:56:57 19° W 20:00:49 10° NW visible
